Location: Le Gr�zie
(43.6000°N, 13.5000°E)
Time: 00:49:42
(UTC+00:00)

Cosmos 2218 Rocket - Pass Details

Date: 09 April 2020
Orbit: 957 x 1005 km, 82.9° (Epoch: 02 June)

Event Time Altitude Azimuth Distance (km) Brightness Sun altitude
Rises 19:10:43 0° 357° (N) 3,667 7.5 -15.8°
Reaches altitude 10° 19:13:22 10° 4° (N) 2,723 6.7 -16.2°
Maximum altitude 19:19:19 45° 76° (ENE) 1,307 4.3 -17.1°
Enters shadow 19:22:20 27° 132° (SE) 1,787 4.8 -17.6°
